EXA9101 EYVI-EEPU

Flight info

Callsign EXA9101
Flight time 0h 48m
Altitude 36000
Route LAFAT DCT ERIVA DCT ANAMA
Aircraft C750/M-SBDE3FGHRWXY/S

Departure

Time 2026-05-05 19:08
Airport Vilnius International Airport (EYVI)

Arrival

Time 2026-05-05 19:56
Airport Pärnu Airport (EEPU)
Time Latitude Longitude Altitude Speed Heading
2026-05-05 18:44 54.64440 25.28392 637 ft 0 kts 177°
2026-05-05 19:05 54.64423 25.28394 637 ft 6 kts 176°
2026-05-05 19:05 54.64404 25.28441 638 ft 6 kts 86°
2026-05-05 19:05 54.64407 25.28511 641 ft 6 kts 86°
2026-05-05 19:05 54.64415 25.28617 646 ft 11 kts 54°
2026-05-05 19:06 54.64482 25.28621 648 ft 11 kts 351°
2026-05-05 19:06 54.64540 25.28683 651 ft 13 kts 80°
2026-05-05 19:06 54.64558 25.28862 655 ft 1 kts 82°
2026-05-05 19:07 54.64559 25.28871 654 ft 4 kts 82°
2026-05-05 19:07 54.64543 25.28971 654 ft 14 kts 120°
2026-05-05 19:07 54.64478 25.29190 655 ft 25 kts 118°
2026-05-05 19:08 54.64381 25.29247 653 ft 18 kts 202°
2026-05-05 19:08 54.64086 25.29044 643 ft 100 kts 201°
2026-05-05 19:08 54.63175 25.28421 700 ft 163 kts 203°
2026-05-05 19:08 54.62086 25.27651 1278 ft 184 kts 204°
2026-05-05 19:09 54.60769 25.26709 1373 ft 226 kts 203°
2026-05-05 19:09 54.59305 25.25725 1283 ft 223 kts 202°
2026-05-05 19:09 54.57846 25.24732 1551 ft 228 kts 203°
2026-05-05 19:09 54.56444 25.23759 2793 ft 209 kts 204°
2026-05-05 19:10 54.55076 25.22811 3717 ft 210 kts 204°
2026-05-05 19:10 54.53735 25.21884 4619 ft 211 kts 205°
2026-05-05 19:10 54.52373 25.20944 5486 ft 211 kts 205°
2026-05-05 19:10 54.51155 25.19572 6188 ft 211 kts 229°
2026-05-05 19:11 54.50444 25.17407 7063 ft 206 kts 252°
2026-05-05 19:11 54.50344 25.14958 7958 ft 209 kts 274°
2026-05-05 19:11 54.50704 25.12537 8903 ft 208 kts 281°
2026-05-05 19:11 54.51078 25.10132 9756 ft 209 kts 280°
2026-05-05 19:12 54.51452 25.07680 10309 ft 222 kts 280°
2026-05-05 19:12 54.51869 25.04937 10692 ft 250 kts 281°
2026-05-05 19:12 54.52404 25.01918 10986 ft 281 kts 289°
2026-05-05 19:12 54.53660 24.99041 11090 ft 323 kts 311°
2026-05-05 19:13 54.55729 24.97068 11314 ft 358 kts 338°
2026-05-05 19:13 54.58238 24.96757 12208 ft 369 kts
2026-05-05 19:13 54.60797 24.97460 13027 ft 376 kts
2026-05-05 19:13 54.63360 24.98480 13786 ft 381 kts
2026-05-05 19:14 54.65970 24.99401 14466 ft 384 kts
2026-05-05 19:14 54.68623 25.00142 15153 ft 388 kts
2026-05-05 19:14 54.71305 25.00931 15853 ft 394 kts
2026-05-05 19:14 54.74015 25.01843 16578 ft 398 kts
2026-05-05 19:15 54.76747 25.02756 17334 ft 403 kts
2026-05-05 19:15 54.79487 25.03607 18096 ft 407 kts
2026-05-05 19:15 54.82292 25.04476 18787 ft 412 kts
2026-05-05 19:15 54.85118 25.05391 19514 ft 415 kts
2026-05-05 19:16 54.87983 25.06324 20247 ft 419 kts
2026-05-05 19:16 54.90884 25.06409 20780 ft 416 kts 347°
2026-05-05 19:16 54.93699 25.05359 21623 ft 414 kts 342°
2026-05-05 19:16 54.96544 25.04360 22308 ft 421 kts 345°
2026-05-05 19:17 54.99464 25.03648 23023 ft 426 kts 348°
2026-05-05 19:17 55.02416 25.02937 23657 ft 430 kts 346°
2026-05-05 19:17 55.04351 25.02364 24053 ft 431 kts 345°
2026-05-05 19:17 55.07332 25.01406 24650 ft 435 kts 344°
2026-05-05 19:20 55.09257 25.00828 25031 ft 438 kts 345°
2026-05-05 19:20 55.12283 25.00005 25623 ft 442 kts 346°
2026-05-05 19:20 55.15282 24.99187 26201 ft 445 kts 345°
2026-05-05 19:20 55.18344 24.98283 26805 ft 448 kts 344°
2026-05-05 19:21 55.21437 24.97359 27406 ft 452 kts 345°
2026-05-05 19:21 55.24549 24.96468 28006 ft 456 kts 345°
2026-05-05 19:21 55.27696 24.95579 28616 ft 459 kts 345°
2026-05-05 19:21 55.30859 24.94660 29213 ft 463 kts 344°
2026-05-05 19:22 55.34047 24.93720 29800 ft 467 kts 344°
2026-05-05 19:22 55.37258 24.92785 30322 ft 470 kts 344°
2026-05-05 19:22 55.40505 24.91849 30860 ft 473 kts 344°
2026-05-05 19:22 55.43739 24.90910 31618 ft 469 kts 344°
2026-05-05 19:23 55.46936 24.89974 32432 ft 465 kts 344°
2026-05-05 19:23 55.50106 24.89042 33229 ft 461 kts 343°
2026-05-05 19:23 55.53275 24.88114 33995 ft 458 kts 343°
2026-05-05 19:23 55.56409 24.87193 34594 ft 458 kts 343°
2026-05-05 19:24 55.59557 24.86264 35129 ft 458 kts 344°
2026-05-05 19:24 55.62664 24.85349 35681 ft 456 kts 344°
2026-05-05 19:24 55.65848 24.84407 35844 ft 466 kts 344°
2026-05-05 19:24 55.69091 24.83437 35847 ft 479 kts 344°
2026-05-05 19:25 55.72415 24.82453 35859 ft 491 kts 344°
2026-05-05 19:25 55.75828 24.81450 35865 ft 501 kts 345°
2026-05-05 19:25 55.82807 24.79374 35869 ft 514 kts 344°
2026-05-05 19:26 55.89847 24.77277 35868 ft 516 kts 344°
2026-05-05 19:26 55.96928 24.75154 35866 ft 516 kts 344°
2026-05-05 19:27 56.04015 24.73022 35867 ft 517 kts 344°
2026-05-05 19:27 56.11118 24.70878 35873 ft 517 kts 344°
2026-05-05 19:28 56.18225 24.68723 35875 ft 518 kts 344°
2026-05-05 19:28 56.25351 24.66556 35879 ft 519 kts 344°
2026-05-05 19:29 56.32473 24.64381 35876 ft 520 kts 344°
2026-05-05 19:29 56.38440 24.62861 35854 ft 527 kts 350°
2026-05-05 19:30 56.45214 24.62471 35885 ft 529 kts 352°
2026-05-05 19:30 56.52571 24.61910 35888 ft 528 kts 351°
2026-05-05 19:31 56.59917 24.61403 35889 ft 529 kts 352°
2026-05-05 19:31 56.64839 24.61072 35892 ft 529 kts 351°
2026-05-05 19:32 56.69733 24.60690 35888 ft 529 kts 351°
2026-05-05 19:32 56.77171 24.60177 35892 ft 529 kts 352°
2026-05-05 19:33 56.84541 24.59637 35894 ft 529 kts 351°
2026-05-05 19:33 56.91853 24.59115 35889 ft 529 kts 352°
2026-05-05 19:34 56.99136 24.58596 35874 ft 506 kts 352°
2026-05-05 19:34 57.02564 24.58367 35620 ft 478 kts 351°
2026-05-05 19:35 57.09067 24.57858 33324 ft 466 kts 349°
2026-05-05 19:35 57.12311 24.57604 31591 ft 470 kts 349°
2026-05-05 19:35 57.15623 24.57371 29850 ft 489 kts 350°
2026-05-05 19:35 57.19049 24.57131 29472 ft 485 kts 350°
2026-05-05 19:36 57.22400 24.56909 29246 ft 486 kts 350°
2026-05-05 19:36 57.25780 24.56645 28581 ft 480 kts 349°
2026-05-05 19:36 57.29085 24.56394 27958 ft 471 kts 350°
2026-05-05 19:36 57.32331 24.56161 27349 ft 466 kts 350°
2026-05-05 19:37 57.35557 24.55926 26740 ft 461 kts 350°
2026-05-05 19:37 57.38750 24.55685 26137 ft 456 kts 349°
2026-05-05 19:37 57.41914 24.55448 25539 ft 452 kts 349°
2026-05-05 19:37 57.45045 24.55217 24948 ft 448 kts 349°
2026-05-05 19:38 57.48141 24.54988 24367 ft 444 kts 349°
2026-05-05 19:38 57.51186 24.54760 23791 ft 440 kts 349°
2026-05-05 19:38 57.54230 24.54531 23179 ft 436 kts 349°
2026-05-05 19:38 57.57248 24.54307 22605 ft 431 kts 349°
2026-05-05 19:39 57.60232 24.54083 22044 ft 428 kts 349°
2026-05-05 19:39 57.63194 24.53860 21481 ft 424 kts 349°
2026-05-05 19:39 57.66130 24.53639 20924 ft 421 kts 349°
2026-05-05 19:39 57.69037 24.53420 20377 ft 417 kts 349°
2026-05-05 19:40 57.71933 24.53202 19834 ft 413 kts 349°
2026-05-05 19:40 57.74797 24.52986 19292 ft 410 kts 350°
2026-05-05 19:40 57.77634 24.52771 18752 ft 406 kts 350°
2026-05-05 19:40 57.80447 24.52557 18226 ft 403 kts 350°
2026-05-05 19:41 57.83231 24.52347 17660 ft 398 kts 350°
2026-05-05 19:41 57.85990 24.52138 17139 ft 395 kts 350°
2026-05-05 19:41 57.88726 24.51927 16622 ft 392 kts 350°
2026-05-05 19:41 57.91438 24.51720 16111 ft 389 kts 350°
2026-05-05 19:42 57.94125 24.51516 15605 ft 385 kts 350°
2026-05-05 19:42 57.96796 24.51312 15100 ft 382 kts 350°
2026-05-05 19:42 57.99442 24.51108 14602 ft 380 kts 350°
2026-05-05 19:42 58.02081 24.50905 14104 ft 377 kts 351°
2026-05-05 19:43 58.04655 24.50709 13603 ft 374 kts 351°
2026-05-05 19:43 58.07238 24.50510 13092 ft 370 kts 351°
2026-05-05 19:43 58.09813 24.50311 12604 ft 368 kts 351°
2026-05-05 19:43 58.12357 24.50113 12123 ft 366 kts 351°
2026-05-05 19:44 58.14901 24.49918 11644 ft 364 kts 351°
2026-05-05 19:44 58.17454 24.49722 11158 ft 358 kts 351°
2026-05-05 19:44 58.19868 24.49548 10709 ft 336 kts 351°
2026-05-05 19:44 58.22103 24.49381 10296 ft 317 kts 350°
2026-05-05 19:45 58.24256 24.49206 9902 ft 302 kts 349°
2026-05-05 19:45 58.26290 24.49046 9870 ft 286 kts 349°
2026-05-05 19:45 58.28298 24.48874 9878 ft 293 kts 349°
2026-05-05 19:45 58.30351 24.48706 9885 ft 296 kts 349°
2026-05-05 19:46 58.32440 24.48625 9457 ft 298 kts 354°
2026-05-05 19:46 58.34391 24.49667 8552 ft 297 kts 20°
2026-05-05 19:46 58.36078 24.51980 7667 ft 301 kts 38°
2026-05-05 19:46 58.37616 24.54702 6846 ft 296 kts 40°
2026-05-05 19:47 58.39089 24.57307 6037 ft 288 kts 39°
2026-05-05 19:47 58.40569 24.59873 5166 ft 299 kts 39°
2026-05-05 19:47 58.42017 24.62390 4405 ft 267 kts 39°
2026-05-05 19:47 58.43387 24.64789 3638 ft 269 kts 39°
2026-05-05 19:48 58.44785 24.67235 3254 ft 263 kts 39°
2026-05-05 19:48 58.46102 24.69552 2990 ft 255 kts 39°
2026-05-05 19:48 58.47410 24.71841 2998 ft 257 kts 39°
2026-05-05 19:48 58.48700 24.74109 3001 ft 229 kts 39°
2026-05-05 19:49 58.49846 24.76134 2970 ft 223 kts 39°
2026-05-05 19:49 58.50613 24.77476 2983 ft 219 kts 39°
2026-05-05 19:49 58.52232 24.79657 2926 ft 208 kts 14°
2026-05-05 19:49 58.53573 24.79772 2966 ft 180 kts 346°
2026-05-05 19:50 58.54652 24.78885 2975 ft 163 kts 323°
2026-05-05 19:50 58.55412 24.77352 2990 ft 158 kts 304°
2026-05-05 19:50 58.56053 24.75614 3002 ft 160 kts 305°
2026-05-05 19:50 58.56711 24.73882 3001 ft 161 kts 305°
2026-05-05 19:51 58.57236 24.72009 2972 ft 162 kts 287°
2026-05-05 19:51 58.57282 24.69870 2982 ft 164 kts 264°
2026-05-05 19:51 58.56824 24.67815 2812 ft 174 kts 238°
2026-05-05 19:51 58.55951 24.66358 2655 ft 154 kts 219°
2026-05-05 19:52 58.55140 24.65285 2524 ft 134 kts 221°
2026-05-05 19:52 58.54391 24.64250 2414 ft 133 kts 221°
2026-05-05 19:52 58.53628 24.63203 2304 ft 137 kts 221°
2026-05-05 19:52 58.52847 24.62139 2190 ft 139 kts 221°
2026-05-05 19:53 58.52019 24.61007 2074 ft 144 kts 220°
2026-05-05 19:53 58.51238 24.59957 1992 ft 131 kts 221°
2026-05-05 19:53 58.50481 24.58924 1972 ft 137 kts 221°
2026-05-05 19:53 58.49699 24.57862 1804 ft 138 kts 221°
2026-05-05 19:54 58.48914 24.56794 1612 ft 139 kts 220°
2026-05-05 19:54 58.48137 24.55734 1421 ft 139 kts 220°
2026-05-05 19:54 58.47350 24.54663 1225 ft 139 kts 220°
2026-05-05 19:54 58.46561 24.53589 1023 ft 139 kts 220°
2026-05-05 19:55 58.45779 24.52508 811 ft 138 kts 219°
2026-05-05 19:55 58.44998 24.51437 618 ft 138 kts 218°
2026-05-05 19:55 58.44218 24.50369 432 ft 138 kts 217°
2026-05-05 19:55 58.43432 24.49316 234 ft 138 kts 216°
2026-05-05 19:56 58.42645 24.48281 73 ft 134 kts 223°
2026-05-05 19:56 58.41974 24.47355 43 ft 100 kts 216°
2026-05-05 19:56 58.41556 24.46785 41 ft 51 kts 215°
2026-05-05 19:56 58.41370 24.46531 36 ft 25 kts 214°
2026-05-05 19:57 58.41287 24.46441 36 ft 5 kts 95°
2026-05-05 19:57 58.41296 24.46456 36 ft 2 kts 33°
2026-05-05 19:57 58.41370 24.46548 36 ft 21 kts 32°
2026-05-05 19:57 58.41405 24.46589 37 ft 7 kts 32°
2026-05-05 19:58 58.41494 24.46717 39 ft 20 kts 36°
2026-05-05 19:58 58.41603 24.46861 42 ft 18 kts 33°
2026-05-05 19:58 58.41705 24.46997 42 ft 18 kts 37°
2026-05-05 19:58 58.41797 24.47123 41 ft 15 kts 36°
2026-05-05 19:59 58.41879 24.47241 42 ft 11 kts 36°
2026-05-05 19:59 58.41942 24.47327 43 ft 11 kts 35°
2026-05-05 19:59 58.42016 24.47426 44 ft 16 kts 34°
2026-05-05 19:59 58.42155 24.47594 45 ft 27 kts 32°
2026-05-05 20:00 58.42263 24.47578 48 ft 16 kts 304°
2026-05-05 20:00 58.42326 24.47406 45 ft 16 kts 308°
2026-05-05 20:00 58.42383 24.47239 46 ft 11 kts 270°
2026-05-05 20:00 58.42368 24.47228 44 ft 0 kts 131°